Location: *
(44.1392°N, 4.8079°E)
Time: 21:02:31
(UTC+00:00)

CZ-2D R/B - Pass Details

Date: 21 June 2021
Orbit: 791 x 845 km, 98.7° (Epoch: 02 August)

Event Time Altitude Azimuth Distance (km) Brightness Sun altitude
Rises 02:52:24 0° 358° (N) 3,303 6.0 -9.7°
Reaches altitude 10° 02:55:31 10° 339° (NNW) 2,367 4.9 -9.3°
Maximum altitude 02:58:42 17° 301° (WNW) 1,939 4.0 -8.9°
Drops below altitude 10° 03:01:53 10° 263° (W) 2,362 4.1 -8.5°
Enters shadow 03:03:01 - 254° (WSW) 2,663 4.3 -8.4°
